Wind_Speed
5 6 10 11 12 13 13 11 9 10 10 8 10 13 11 11 11 9 9 6 12 21 26 25 20 16 13 10 10 8 9 15 19 20 21 21 23 26 26 26 25 26 27 27 27 27 26 23 21 21 20 18 15 12 12 14 15 16 17 17 18 15 10 8 7 8 8 6 5 5 6 8 8 8 9 9 9 9 10 10 10 12 13 16 20 24
5 9 10 8 9 10 8 8 9 11 13 14 14 16 17 16 15 13 9 5 7 16 19 20 18 15 15 15 13 13 14 16 19 21 22 23 24 26 26 26 25 25 26 28 27 26 24 21 21 22 21 18 16 14 14 15 17 17 18 18 18 19 14 9 8 8 8 6 5 5 6 7 6 7 8 8 9 9 9 9 8 9 11 13 15 18
9 10 7 3 5 7 6 7 11 12 14 15 14 15 17 16 14 12 8 6 6 10 13 17 19 15 16 20 19 17 18 18 20 22 24 25 25 26 27 27 27 26 28 29 27 25 24 23 23 24 21 19 17 16 16 17 18 18 18 18 17 20 18 11 9 9 9 7 5 5 5 4 4 5 6 6 7 8 8 8 8 8 9 9 11 13
10 6 1 1 5 8 9 9 12 14 14 14 14 15 17 17 14 9 5 5 7 10 12 14 17 17 15 19 21 21 20 19 20 21 23 25 26 27 27 27 27 29 30 29 28 26 24 23 24 24 22 21 19 18 18 19 20 19 17 17 18 21 19 12 10 10 10 9 6 4 2 2 2 2 3 4 4 5 5 6 7 7 8 8 9 10
14 9 6 6 8 10 12 13 15 16 16 16 15 16 18 18 16 12 10 8 8 10 13 16 19 20 19 17 18 19 19 20 21 22 25 28 29 28 27 28 28 30 29 27 26 25 23 23 23 23 22 22 21 20 20 21 21 19 18 18 19 21 18 12 10 11 11 9 6 4 3 3 2 1 1 1 2 2 2 3 4 4 5 6 7 9
16 15 15 16 14 13 14 15 17 18 17 17 18 18 20 20 16 13 11 10 10 11 13 13 11 13 17 17 16 15 15 16 18 19 22 26 30 30 27 29 29 27 26 24 24 24 23 22 22 24 25 25 24 23 22 21 20 20 18 18 20 21 17 13 12 12 11 9 7 5 4 4 2 1 1 1 1 2 2 1 1 2 2 3 4 6
14 14 15 19 19 17 16 17 18 17 16 17 19 20 18 16 13 10 10 10 9 11 12 11 8 10 19 22 19 18 18 18 16 15 17 20 24 29 29 29 30 29 27 25 25 24 22 21 23 26 28 28 27 25 24 22 21 20 19 18 20 21 17 14 13 12 11 10 8 6 5 4 3 2 1 2 3 3 3 3 2 1 1 2 3 4
9 11 12 17 20 18 17 18 16 14 14 13 12 14 13 12 10 11 11 10 7 8 11 11 11 12 18 25 22 20 23 23 15 12 16 19 21 26 28 28 30 30 29 27 25 22 22 23 24 25 27 28 27 26 25 23 22 21 20 19 21 21 17 14 14 13 11 10 10 8 7 6 4 4 5 6 6 6 5 5 5 5 4 4 4 4
9 10 10 15 18 16 14 14 11 11 12 9 6 9 11 10 12 12 10 8 7 8 10 12 13 9 15 26 23 19 21 19 13 11 15 20 20 24 27 26 27 28 28 27 24 22 22 22 22 22 22 24 25 25 25 23 21 20 21 22 23 21 17 15 15 14 12 11 11 11 10 9 7 8 8 9 8 7 7 7 8 8 8 7 7 7
10 7 8 12 13 12 11 9 9 11 12 10 9 11 13 10 13 13 9 8 8 8 12 17 16 6 12 29 26 19 17 13 12 13 14 20 23 22 23 24 24 25 26 25 21 21 21 21 20 19 19 20 21 23 24 23 22 21 23 25 25 22 17 16 16 15 13 11 12 12 12 11 10 10 11 11 10 10 10 9 10 10 11 10 9 9
12 8 8 10 10 10 9 9 11 12 11 11 12 15 16 11 12 13 11 11 6 5 14 20 17 6 8 22 21 13 11 12 16 16 14 14 21 21 22 23 22 22 24 23 20 19 20 21 21 20 19 18 19 21 22 24 23 23 26 26 25 22 18 16 16 16 15 12 12 13 14 13 12 13 14 13 13 13 13 12 12 12 12 12 11 10
16 14 13 12 12 12 13 13 12 11 10 10 10 13 14 11 8 8 10 9 2 4 15 16 13 6 6 15 16 11 12 16 19 18 12 7 10 15 19 21 21 21 21 20 20 19 18 19 22 22 22 20 19 20 21 23 24 25 26 25 23 21 17 16 16 16 16 14 13 13 15 15 15 17 17 16 15 15 14 14 13 13 12 12 12 11
16 17 16 14 14 14 14 15 14 11 13 12 8 7 8 2 3 3 4 4 2 8 17 14 10 7 13 21 21 18 17 15 14 16 14 9 8 10 13 16 19 20 20 19 17 17 17 17 17 18 20 21 21 21 20 20 22 22 20 18 17 17 16 15 15 15 16 15 14 14 15 17 19 19 18 17 16 15 14 14 14 14 13 12 12 12
11 12 13 12 13 14 15 18 16 11 13 14 10 10 8 2 2 2 3 2 3 11 17 13 8 7 13 16 15 13 13 12 11 10 12 13 10 10 11 13 15 18 21 19 15 14 15 14 14 14 17 18 19 19 18 17 17 16 14 12 12 13 13 14 15 15 15 15 15 15 16 18 19 19 18 17 16 15 15 15 14 14 14 13 12 12
10 9 9 10 9 9 11 16 16 11 10 13 12 11 11 7 4 3 4 3 4 8 12 10 5 4 7 9 9 10 13 15 16 10 5 9 10 10 11 12 15 18 19 18 15 13 12 11 11 12 14 15 16 17 17 16 16 15 14 12 11 12 13 14 14 15 15 14 14 15 16 18 19 19 18 17 16 15 15 15 15 15 15 14 13 12
11 10 8 9 8 6 7 10 13 14 11 10 13 13 13 13 12 9 8 8 6 3 6 8 8 10 15 17 16 15 16 15 15 10 4 9 12 9 7 11 15 17 17 17 16 14 11 10 11 11 12 14 14 15 15 15 16 17 15 15 14 13 14 15 16 16 15 13 14 15 17 18 18 17 17 17 16 16 16 16 16 16 16 15 14 13
12 11 10 10 9 6 6 6 8 13 12 8 11 13 9 9 12 12 10 8 5 2 4 6 9 14 17 18 16 13 13 12 9 5 2 5 11 8 5 10 15 17 16 16 15 13 11 11 13 15 15 15 15 15 15 15 16 16 16 16 16 15 15 17 17 16 15 14 14 15 17 16 16 16 16 16 17 17 17 17 17 17 17 16 16 15
13 12 12 14 13 10 10 7 5 8 13 10 8 10 9 7 9 9 4 2 1 2 4 5 9 13 11 8 7 6 8 8 6 3 3 4 6 4 4 6 10 15 17 17 16 17 16 16 16 15 14 16 17 17 17 18 18 17 17 17 18 18 18 18 16 16 15 15 15 15 15 15 14 14 15 15 16 16 17 18 18 18 18 18 17 17
12 12 12 16 20 19 18 14 7 5 8 4 3 3 6 9 12 11 5 2 2 2 3 4 8 12 10 5 1 1 2 2 4 1 2 4 6 6 4 5 5 7 10 11 11 13 16 19 20 19 17 16 17 19 21 20 20 19 19 19 20 20 21 19 17 17 16 17 17 16 14 14 13 13 14 15 16 16 17 18 19 19 19 19 19 19
12 11 10 15 20 20 19 16 11 9 9 8 6 2 2 5 12 15 12 7 4 3 3 3 3 6 4 4 7 5 3 3 2 2 2 2 7 12 13 11 8 6 6 6 6 5 7 11 16 20 19 17 18 20 21 21 21 21 21 22 23 22 23 22 21 20 18 17 18 17 16 15 14 13 14 15 16 17 18 18 19 19 19 19 19 19
14 12 12 16 19 19 18 13 10 11 11 11 12 11 10 10 10 10 11 10 6 3 3 2 2 7 6 7 5 2 2 4 3 3 2 2 3 7 13 17 18 16 12 9 6 5 6 7 9 12 16 19 21 21 21 21 22 22 23 24 26 26 24 24 24 22 19 18 18 18 17 16 15 14 15 16 17 18 18 19 20 20 19 19 19 19
10 12 13 15 18 20 22 19 17 17 14 13 15 17 18 18 13 8 6 9 8 6 5 4 4 12 13 9 6 5 3 3 3 3 5 5 4 3 6 11 17 20 20 19 17 14 12 9 5 5 10 16 22 24 26 25 24 25 26 26 26 28 27 26 25 23 21 20 19 19 19 18 17 16 17 18 18 19 19 21 22 21 20 19 20 20
8 8 10 11 13 17 20 21 22 21 19 18 18 17 16 13 9 5 4 7 7 8 9 6 6 17 21 16 14 12 8 5 5 6 5 6 7 8 7 7 10 14 15 17 18 15 12 9 7 7 7 10 15 20 25 29 27 27 30 30 27 28 29 28 28 26 23 21 20 20 20 20 19 19 19 19 20 20 21 22 23 22 21 20 20 21
13 10 10 11 11 14 17 19 21 22 23 23 21 20 15 7 4 6 5 7 7 7 9 4 5 18 22 16 14 14 12 11 13 14 11 9 10 11 13 15 16 17 18 19 18 16 15 13 12 14 13 11 13 15 19 27 31 31 31 33 33 33 31 29 28 28 26 23 22 22 22 22 21 21 20 21 22 22 22 23 24 23 22 22 22 22
15 13 11 10 10 11 12 11 15 18 21 24 25 24 17 9 7 9 5 5 6 6 6 4 6 18 19 12 11 12 15 17 16 16 16 15 15 16 18 19 20 21 24 25 25 23 24 24 23 23 22 19 19 19 18 21 26 30 30 31 34 38 37 33 31 30 28 26 25 25 24 25 23 22 21 22 23 23 24 24 25 24 24 23 23 23
15 14 13 9 6 6 6 6 9 12 16 20 23 22 18 13 13 12 8 6 5 6 7 7 12 22 21 16 15 16 19 21 19 19 20 19 20 22 24 26 27 26 26 25 25 25 27 28 27 27 26 23 21 21 21 19 20 25 29 30 33 36 38 40 40 37 32 28 28 27 26 27 25 22 22 23 24 25 25 25 25 25 25 25 24 25
13 16 17 16 15 13 12 12 13 15 18 22 24 23 21 21 22 17 13 13 12 10 15 18 18 23 26 23 20 21 21 22 23 24 24 24 25 26 28 31 33 33 32 31 31 30 30 30 31 32 31 29 25 24 24 22 20 22 27 31 32 33 34 36 39 42 40 34 31 30 28 28 26 24 23 24 25 26 26 26 27 27 26 26 26 26
12 15 15 17 19 17 16 17 17 18 21 25 27 28 29 29 28 24 20 20 17 12 17 23 20 21 26 26 23 23 22 23 25 26 27 29 30 31 32 34 35 36 36 36 36 35 34 32 33 34 35 34 34 33 32 30 26 23 25 29 32 33 34 35 35 37 40 39 35 32 30 29 28 26 26 26 26 27 27 28 28 29 28 28 28 28
11 14 14 16 18 17 18 18 17 17 20 23 25 27 26 25 25 24 22 20 18 15 20 26 25 23 26 27 25 24 24 25 25 25 26 28 29 32 33 35 37 38 39 38 38 37 36 34 32 32 32 32 32 34 37 39 37 32 28 27 30 33 37 39 39 37 38 40 40 36 31 30 30 28 28 28 27 27 28 29 30 30 30 30 30 30
14 16 14 15 17 18 18 18 17 18 20 24 27 25 23 21 21 21 21 20 21 22 25 27 27 26 25 26 26 26 24 23 21 20 22 24 26 29 32 34 36 37 39 39 38 37 36 34 32 30 29 28 28 29 31 34 38 40 38 34 34 36 37 38 39 37 35 36 40 40 35 30 30 29 28 28 27 27 28 29 31 32 32 32 32 32
17 17 14 12 14 15 14 15 17 18 21 26 28 25 23 23 22 22 23 23 22 22 23 24 27 28 26 25 26 26 23 20 18 19 20 22 24 27 30 33 35 36 38 37 36 35 34 33 32 31 30 30 30 29 28 27 28 34 40 41 41 42 40 35 33 33 31 31 37 41 39 36 32 28 27 26 25 26 28 30 31 32 33 33 33 33
18 19 16 13 14 17 17 18 19 19 22 28 31 28 25 26 26 26 24 22 21 21 23 23 26 29 28 25 24 24 23 22 20 21 22 24 26 29 30 32 34 35 35 35 34 34 32 31 32 32 33 34 34 33 32 30 26 25 30 35 37 40 41 36 32 34 35 34 36 38 38 39 35 28 24 23 25 27 30 31 32 33 33 33 34 33
24 22 19 15 16 18 15 13 16 15 17 24 27 24 22 22 24 23 19 16 17 19 20 20 21 23 25 24 23 23 24 24 25 26 28 29 30 32 34 35 36 37 37 38 37 36 33 31 31 31 33 35 36 36 35 36 34 29 26 28 30 32 34 33 33 36 37 36 36 37 37 37 34 27 23 23 26 30 31 32 32 33 33 34 33 32
31 29 25 19 17 16 13 11 12 11 12 16 19 17 14 14 16 16 16 16 17 19 19 19 19 20 21 23 24 25 26 28 30 31 32 33 34 35 36 38 39 40 40 39 39 38 37 35 34 34 34 34 36 37 37 38 40 37 33 31 31 32 33 33 34 37 38 38 38 38 38 37 34 29 26 25 28 31 32 32 33 33 34 33 33 33
34 32 30 27 22 19 17 13 8 9 14 16 17 17 15 14 15 17 18 20 22 23 23 23 23 24 24 25 27 28 30 30 31 31 31 32 34 36 39 40 40 40 39 38 38 38 38 37 37 37 37 36 36 36 37 38 40 42 42 40 39 39 39 38 38 41 41 39 38 38 40 41 38 33 29 27 27 30 31 32 33 34 34 34 33 33
30 31 30 30 28 22 17 12 10 17 23 21 19 20 20 19 20 21 22 24 25 26 26 26 26 26 27 27 28 30 31 32 32 32 31 32 34 36 38 39 39 38 37 37 36 36 36 36 37 36 36 37 36 35 35 35 37 41 45 46 46 44 42 41 42 43 42 39 40 40 41 41 38 31 27 26 26 28 30 32 33 34 33 32 32 32
20 26 28 28 28 26 22 17 17 25 30 25 22 24 25 26 26 24 22 22 22 24 24 25 26 26 27 29 30 31 33 34 35 34 31 31 32 33 34 35 36 37 36 36 36 35 34 34 35 35 35 36 36 35 34 33 33 35 40 45 46 43 40 39 39 38 36 35 36 35 34 35 31 24 22 24 25 27 29 31 32 31 29 29 30 32
13 17 23 27 27 25 24 18 12 13 16 15 14 14 17 19 19 18 18 19 20 22 23 25 26 26 28 29 31 33 34 36 38 36 31 30 32 33 34 35 36 37 37 36 36 35 34 33 33 34 35 36 36 36 35 34 33 33 34 38 43 43 39 36 36 37 36 34 32 32 33 33 27 20 20 23 25 26 28 28 28 27 27 28 31 33
12 12 14 23 27 22 17 14 10 9 11 11 10 10 12 13 14 14 15 16 19 20 20 22 24 24 25 27 29 31 32 33 37 36 32 31 33 35 36 37 37 37 36 36 36 37 37 36 36 36 34 35 36 37 36 35 35 34 34 35 39 41 40 37 35 36 36 32 31 35 36 31 24 20 21 24 25 25 25 25 25 25 27 28 30 32
13 12 11 16 25 24 19 15 13 14 12 11 10 11 12 14 15 12 8 8 13 15 15 18 19 21 22 24 26 27 27 30 35 36 35 36 36 36 37 38 38 37 36 36 37 39 39 39 40 39 36 34 34 35 36 36 35 35 35 36 37 39 40 38 35 34 35 33 33 33 30 23 19 19 22 24 25 24 25 25 25 25 25 27 29 32
16 13 10 10 15 19 19 17 17 18 17 16 14 11 8 8 8 6 5 7 10 12 14 16 18 20 22 24 26 29 30 32 37 40 40 39 38 37 37 38 38 37 36 36 37 39 39 38 38 38 36 34 34 35 36 35 35 35 35 36 39 41 39 36 34 34 34 34 33 33 27 20 18 18 20 22 23 23 23 23 23 23 26 28 30 31
18 15 10 8 9 11 12 14 15 14 13 11 10 9 9 8 5 5 8 11 14 16 18 20 22 24 27 29 31 34 35 37 38 39 40 40 39 39 38 37 37 35 33 32 34 36 37 37 37 37 35 35 36 36 36 35 35 35 35 37 40 40 37 36 36 34 32 32 33 30 25 20 18 18 19 19 19 20 21 22 22 24 26 27 28 28
17 16 10 7 9 10 10 10 7 4 4 5 8 11 12 11 11 14 17 19 21 23 25 26 28 29 31 32 33 33 35 35 35 36 37 39 40 40 38 36 36 36 36 35 35 34 35 37 38 37 36 37 38 38 38 37 36 36 35 37 39 38 37 38 37 34 34 36 33 26 21 18 18 19 19 18 18 20 21 22 24 24 24 24 24 25
15 12 9 9 9 8 7 7 4 2 7 12 15 17 17 18 21 23 23 23 25 26 28 29 30 30 31 33 33 33 34 34 34 34 35 36 36 36 35 35 35 36 37 37 37 35 35 36 38 38 37 37 38 38 38 38 37 37 36 35 35 37 39 42 41 36 34 35 31 23 18 17 18 18 18 18 19 19 21 23 22 20 19 20 22 23
14 12 13 16 16 14 15 16 14 15 17 18 20 22 23 24 25 24 25 26 26 28 29 30 30 30 31 33 34 34 34 33 32 31 33 33 33 33 34 35 35 36 36 36 35 35 34 35 37 37 37 36 37 38 38 37 37 36 34 32 32 36 41 45 43 38 35 32 26 19 17 17 18 18 18 18 19 19 21 20 16 15 16 18 21 23
22 22 23 25 25 25 27 26 21 20 21 22 25 27 26 25 24 24 25 27 27 28 29 29 30 31 31 31 32 34 33 31 30 30 31 32 33 34 34 34 35 35 35 34 34 33 33 34 35 35 35 34 34 32 31 31 32 31 30 30 32 36 41 41 39 38 34 25 19 17 17 18 18 16 15 17 18 19 17 14 13 14 17 19 22 25
23 24 26 28 27 29 31 29 25 24 26 27 28 26 24 23 23 23 25 26 27 28 29 30 31 30 29 28 30 30 30 29 28 29 30 32 34 34 34 35 35 35 34 33 32 31 31 31 31 31 31 30 28 28 27 27 27 27 29 29 29 34 37 35 34 33 26 19 17 18 18 17 16 14 15 18 17 15 12 12 14 16 18 22 25 28
20 22 25 27 28 29 31 31 28 28 28 27 26 25 25 25 26 26 26 27 28 30 30 31 32 31 30 30 29 29 29 28 28 29 32 33 33 33 34 36 36 36 34 32 30 28 27 26 22 18 15 13 15 18 21 22 20 20 24 27 30 33 33 30 28 26 23 20 20 20 17 15 14 16 17 16 13 11 12 14 16 18 20 24 27 30
23 26 27 27 28 31 31 29 27 27 27 26 25 26 27 28 29 29 28 28 29 29 29 30 31 31 31 30 29 29 30 30 30 32 33 33 33 34 35 37 38 37 33 28 24 22 19 14 10 10 11 10 11 15 20 23 22 22 23 25 25 26 26 25 23 23 24 24 21 19 17 16 16 16 14 11 11 12 14 16 18 19 21 25 28 30
24 26 25 24 27 30 29 25 24 27 30 28 27 29 29 30 31 30 29 29 29 29 29 30 30 30 29 28 27 29 31 33 33 32 32 32 33 34 36 37 36 32 25 20 18 16 12 11 12 15 14 11 13 17 21 23 24 23 21 21 20 21 22 20 20 21 22 20 18 17 17 18 17 13 10 10 12 14 16 19 20 21 23 27 29 29
22 23 22 23 26 29 28 25 25 28 31 30 30 31 31 31 32 31 30 30 29 28 28 28 28 28 26 25 26 28 31 32 31 30 31 32 33 33 32 30 26 21 16 14 14 14 13 10 10 13 14 12 12 16 18 21 24 24 22 22 22 20 20 19 19 19 17 16 18 19 18 16 12 9 9 11 13 16 19 20 21 23 25 28 29 29
Wind_Direction
240 238 235 233 221 207 212 217 224 256 266 263 265 271 282 287 290 315 350 326 243 224 214 217 228 234 230 214 211 223 210 203 209 219 232 246 255 259 260 260 261 262 261 259 260 263 269 276 283 285 284 287 293 298 309 314 310 312 317 325 330 323 303 291 294 290 285 281 271 257 237 238 247 253 259 260 257 254 249 245 238 233 232 229 228 228
250 242 238 235 213 201 218 235 248 267 262 259 266 272 278 286 299 307 319 326 235 216 212 217 228 235 229 220 222 228 225 218 219 229 242 253 259 259 258 256 257 260 257 253 256 260 265 271 279 281 282 286 290 293 304 307 303 307 312 314 322 328 318 294 290 288 280 277 254 232 218 221 234 238 245 254 257 258 255 250 244 238 234 232 232 231
242 244 239 233 227 223 243 255 257 261 256 259 267 276 282 288 302 311 303 290 253 230 224 221 228 234 225 223 231 233 227 221 220 229 240 249 257 258 255 253 252 253 250 250 251 255 261 269 277 279 279 284 287 291 298 301 301 303 306 306 312 325 321 297 290 296 289 287 266 238 226 222 234 233 232 240 247 256 258 254 247 242 240 237 235 236
233 252 14 191 245 245 243 247 256 261 262 267 274 280 284 290 300 310 301 273 255 247 241 239 247 254 246 234 232 231 231 230 228 235 244 249 254 257 257 256 252 249 249 250 250 255 263 270 275 276 277 283 284 287 292 296 301 300 297 298 307 322 321 298 292 299 293 291 281 266 266 264 262 240 231 236 242 254 259 260 256 248 242 237 235 236
240 266 301 268 246 239 235 237 247 258 267 273 280 284 284 289 295 299 297 283 267 257 251 261 272 273 267 255 245 240 240 245 247 250 253 252 250 248 250 251 248 247 249 252 254 257 262 268 272 275 276 278 277 283 291 295 298 293 289 294 305 321 319 297 293 295 289 291 291 294 312 325 330 294 248 255 258 257 241 236 246 249 244 238 234 233
260 270 268 259 252 243 237 236 241 250 264 272 277 282 285 289 291 290 294 286 264 254 255 267 280 279 274 268 260 254 253 258 259 257 258 256 248 239 239 242 239 241 246 252 258 258 260 267 270 271 272 272 274 282 290 294 294 286 284 292 305 319 315 294 292 290 286 292 294 298 308 313 312 301 338 358 290 268 241 208 206 226 230 233 235 230
274 282 264 253 253 248 239 237 241 246 258 271 277 281 281 281 284 283 290 294 267 250 259 267 270 276 279 278 272 264 267 274 272 260 256 254 244 236 236 238 235 236 242 250 257 254 254 261 265 266 268 270 274 281 285 289 288 282 282 291 305 313 306 291 289 283 280 286 284 284 286 277 270 272 257 262 283 287 290 306 311 299 280 262 259 245
277 293 270 248 242 237 234 235 242 251 263 282 292 292 280 267 278 283 285 304 305 270 265 271 276 277 281 284 282 273 271 276 274 253 244 244 240 236 236 237 234 234 242 250 256 257 255 256 261 267 270 270 273 277 279 282 284 282 283 290 301 305 296 287 286 278 272 273 270 267 263 251 239 237 240 252 269 284 293 303 305 302 298 287 279 267
283 301 265 236 229 229 236 241 252 263 269 284 301 303 291 275 282 284 283 300 321 311 286 279 287 287 286 288 289 284 276 273 272 258 247 243 238 236 237 238 238 238 244 250 256 263 262 261 266 273 274 273 273 274 275 278 280 280 281 287 296 299 290 284 285 276 266 263 260 257 255 252 248 246 253 264 271 278 283 288 292 290 286 282 278 269
274 291 250 240 244 241 243 252 266 264 261 265 269 282 283 275 276 278 289 299 310 324 297 285 289 293 291 289 288 289 283 277 283 296 288 256 238 235 237 237 240 241 244 249 256 264 265 268 271 273 274 276 277 274 274 277 276 275 279 284 292 295 285 279 282 274 263 259 258 257 257 256 258 262 269 276 279 282 282 281 281 277 276 277 277 274
262 268 250 252 255 248 251 269 279 269 255 256 267 276 269 258 264 267 281 299 315 311 280 281 293 300 290 291 293 296 298 303 298 306 319 274 238 233 236 239 240 236 239 245 250 256 260 263 263 262 266 272 276 274 276 277 273 274 279 283 290 291 279 271 275 271 262 260 261 260 260 262 266 272 278 284 287 288 288 285 280 274 271 272 273 275
253 257 257 259 259 260 266 271 281 274 251 258 281 275 256 247 265 270 276 291 332 268 264 277 308 315 255 279 299 311 314 318 300 289 310 301 240 233 233 237 238 230 231 236 240 247 253 254 251 251 254 259 265 271 278 279 274 275 280 284 287 284 274 268 269 266 260 261 264 261 262 265 270 276 281 286 288 289 289 286 282 276 272 269 266 266
252 250 251 258 259 259 262 265 276 266 242 255 273 236 217 237 329 305 281 277 223 253 263 277 316 297 258 274 292 299 302 313 302 283 284 281 264 256 241 235 234 229 228 228 232 242 247 250 251 252 254 258 265 273 281 284 278 278 281 285 285 277 268 262 258 259 259 260 263 263 263 266 272 278 283 286 286 285 285 284 283 279 275 271 264 260
262 252 249 254 254 252 254 258 265 257 238 248 250 221 208 129 65 281 281 294 267 265 266 277 300 277 269 286 298 299 302 316 321 301 274 262 261 264 249 233 230 228 225 226 235 247 250 251 253 259 265 268 272 276 281 285 280 276 275 282 292 289 277 264 256 257 259 260 262 261 263 268 275 281 284 286 286 285 285 285 287 286 282 277 269 262
263 262 260 260 260 258 262 259 258 257 245 240 242 243 241 223 194 224 232 210 223 255 262 270 281 259 276 304 315 316 317 316 319 321 266 245 253 256 240 223 224 227 224 227 243 263 272 273 265 264 267 270 274 275 279 285 285 278 272 273 288 299 296 284 273 267 263 261 262 260 263 269 276 282 285 287 288 290 292 293 293 291 288 284 279 272
248 248 251 258 262 259 267 262 250 247 246 241 242 248 250 248 246 237 232 232 217 232 266 258 255 267 282 292 298 307 310 305 307 318 293 242 242 240 223 210 216 226 232 238 249 264 276 283 287 284 278 275 277 279 282 287 289 286 280 275 279 291 300 299 294 285 273 262 258 259 262 268 276 282 286 290 293 296 299 300 299 295 293 291 287 281
226 224 226 239 239 227 242 266 266 249 243 246 239 236 245 269 270 257 245 245 229 231 261 241 256 280 290 291 289 292 292 294 307 337 43 220 225 214 195 201 207 217 229 237 247 259 261 269 285 286 282 280 279 281 286 291 294 292 287 280 276 282 292 299 303 298 282 268 261 262 263 268 277 284 289 292 295 300 303 304 302 299 298 297 295 292
229 231 237 240 237 233 233 244 292 259 241 251 255 245 252 272 285 285 276 263 237 252 256 240 258 277 286 287 297 307 292 307 346 17 106 153 187 175 128 158 193 212 221 228 241 253 257 269 282 283 280 279 279 282 287 292 295 294 290 280 272 279 289 294 300 299 289 277 270 266 265 269 276 281 287 291 294 298 303 305 304 302 301 299 298 297
239 248 256 255 251 250 244 241 255 235 216 245 330 306 271 254 254 258 257 268 257 250 272 259 253 265 271 261 248 30 294 324 34 38 219 209 215 215 170 135 152 187 194 203 220 238 251 263 272 277 281 281 282 288 292 293 293 290 289 282 274 279 286 287 289 292 291 287 279 270 263 268 274 277 281 285 289 294 299 303 303 302 301 299 297 296
247 254 256 258 256 254 253 255 261 249 233 244 252 252 317 270 248 243 236 225 206 198 250 273 264 261 247 142 130 119 143 173 147 141 148 191 224 225 220 214 211 201 185 178 180 201 240 255 264 270 276 279 282 288 290 290 290 290 289 283 277 278 280 281 284 288 289 289 285 274 265 270 276 275 277 281 286 292 296 299 301 301 299 297 295 294
242 247 247 253 255 256 260 265 279 279 271 268 261 261 287 304 292 269 250 233 210 172 180 181 263 252 213 159 145 127 140 175 193 195 177 155 178 203 211 214 219 225 234 239 238 254 259 259 266 262 261 266 273 278 278 276 279 283 286 285 277 272 274 277 279 282 285 288 287 280 273 276 278 273 274 279 284 289 294 297 298 297 296 294 291 290
235 238 241 247 249 253 258 262 271 277 277 280 278 276 288 300 305 297 263 243 231 219 211 186 226 249 238 221 237 262 238 200 194 220 234 227 218 213 206 209 216 222 232 241 245 254 258 253 256 258 259 264 267 269 268 267 269 269 274 280 275 267 269 272 274 278 282 281 281 281 277 277 277 273 273 278 282 285 290 294 295 294 292 290 288 287
277 252 243 245 243 247 254 257 262 265 265 269 276 280 284 290 291 289 282 277 266 246 241 223 233 255 253 251 263 263 247 256 297 301 282 254 253 257 250 250 243 231 230 233 234 240 250 243 228 235 256 272 273 268 262 262 265 265 267 269 266 267 272 272 272 275 276 274 272 272 273 275 275 274 275 278 280 283 288 292 293 292 290 287 285 285
291 282 270 275 273 265 262 261 261 261 262 265 271 275 270 257 291 316 298 285 290 266 246 213 237 260 257 252 258 262 269 293 309 310 310 301 285 275 267 270 273 268 262 257 252 254 261 263 256 249 252 260 267 269 265 262 261 262 269 268 260 263 272 277 277 272 267 268 266 262 265 269 271 274 277 279 279 282 287 290 291 291 290 288 285 283
283 279 279 293 298 288 283 276 269 264 263 263 264 264 256 249 295 317 316 291 287 264 237 190 238 257 253 237 230 250 280 298 307 310 306 297 287 282 276 271 270 273 273 270 269 268 264 264 263 259 258 256 253 256 267 276 270 264 271 274 265 259 258 261 269 269 265 265 261 258 261 263 266 272 275 277 278 280 285 288 291 291 290 289 286 283
280 270 270 273 264 263 270 272 270 267 261 258 255 251 250 266 293 310 330 316 275 250 244 246 266 268 258 242 243 261 277 285 291 299 300 297 290 286 282 278 274 274 273 268 267 266 263 262 262 261 260 258 258 259 260 276 287 276 271 274 274 270 260 253 254 255 256 261 260 257 257 258 261 264 267 270 272 275 281 285 289 291 290 288 286 284
280 275 273 268 260 260 266 268 269 269 266 262 258 253 256 276 291 299 305 288 270 270 274 272 281 283 267 255 269 289 293 290 287 287 291 295 294 290 287 286 285 284 283 280 277 274 272 269 269 270 268 264 265 269 265 266 275 279 275 273 275 279 275 270 265 254 247 252 258 255 252 253 256 256 256 260 264 268 275 281 284 288 289 288 286 285
283 282 276 269 266 269 277 281 279 273 270 270 269 264 264 275 286 289 288 283 277 282 281 276 283 288 275 271 290 305 304 300 295 290 289 289 289 289 288 288 289 291 292 292 291 288 285 282 278 277 277 273 267 266 267 264 263 268 274 273 273 277 277 279 280 267 252 250 252 252 248 246 247 248 249 253 259 265 270 275 280 284 287 287 286 283
270 275 270 269 272 272 277 283 280 273 270 272 274 273 272 277 282 283 283 282 279 273 271 274 282 288 284 286 298 302 297 296 296 294 293 291 290 291 290 289 289 289 291 293 295 295 293 292 289 284 281 278 271 265 263 262 260 258 260 266 270 273 273 273 275 274 267 258 250 246 247 245 241 243 247 253 259 264 268 271 276 281 284 284 283 281
261 270 271 276 281 278 274 272 270 270 274 276 275 274 274 275 276 278 280 278 274 270 268 272 280 287 287 287 291 294 296 297 297 296 295 293 293 292 291 291 289 288 290 292 293 294 291 289 287 281 275 272 269 266 265 263 259 255 254 260 264 264 267 267 266 268 270 262 249 244 244 242 240 242 249 256 261 262 265 269 273 277 279 279 279 278
262 270 273 278 282 277 268 263 266 273 275 275 273 268 266 270 270 269 271 274 275 274 273 273 276 278 279 280 284 289 293 293 290 289 289 289 291 292 292 293 292 291 292 293 293 294 289 282 276 271 267 266 264 263 263 264 261 255 254 258 261 261 262 261 259 261 265 262 257 253 248 240 238 243 249 256 261 264 266 268 270 273 275 276 276 276
268 267 268 275 280 278 273 268 268 271 271 268 265 260 258 263 267 267 268 274 278 277 276 275 273 272 275 278 280 282 283 284 285 287 290 291 292 292 292 293 294 294 293 294 295 295 290 281 274 267 264 264 263 261 260 260 260 257 255 257 258 260 262 261 258 260 264 267 267 266 257 246 241 243 247 254 264 268 269 269 270 271 273 274 275 276
275 269 266 271 278 278 275 264 258 263 268 266 264 264 261 256 258 261 264 271 275 275 276 277 275 274 276 279 280 279 279 283 286 288 290 292 293 294 295 296 296 296 295 294 294 294 291 285 280 274 268 265 264 263 260 259 261 262 260 258 258 258 260 261 258 257 259 263 264 266 262 251 241 238 244 257 267 271 271 270 271 272 273 274 276 277
275 271 265 263 267 270 259 243 251 261 259 257 262 265 254 237 238 249 261 271 275 277 281 283 282 280 280 281 283 283 284 285 288 291 294 295 297 299 300 300 299 298 297 296 294 293 292 289 285 282 276 271 269 267 263 260 261 263 263 260 259 260 261 262 260 256 256 258 258 260 261 253 242 236 242 255 265 269 271 271 272 274 275 276 277 278
272 269 264 258 257 262 258 245 250 265 255 252 259 258 246 237 243 255 269 275 276 278 281 282 283 283 283 284 286 286 286 289 293 298 302 303 302 302 301 300 300 299 297 296 295 294 293 291 287 284 280 275 273 270 266 262 261 261 262 262 263 265 267 267 261 253 251 252 250 249 251 247 239 234 237 246 258 265 268 271 273 275 276 277 278 280
272 266 261 256 253 255 252 231 229 258 265 262 257 252 247 247 253 261 269 272 271 273 276 277 279 282 284 288 290 290 291 293 296 299 304 306 304 302 300 299 298 297 297 297 297 295 293 290 287 284 280 275 272 270 267 265 262 260 259 261 264 266 268 270 263 247 239 240 237 232 232 230 227 228 234 241 252 261 265 270 273 274 275 278 280 282
284 269 259 252 249 248 245 239 248 265 272 273 267 263 261 260 264 267 267 266 268 270 273 276 279 282 284 287 290 291 291 291 290 293 300 302 300 297 296 295 294 295 296 297 298 295 291 288 287 286 283 277 273 272 269 266 263 260 257 258 262 264 264 267 263 248 237 235 231 223 220 220 222 230 240 244 251 257 262 267 270 273 277 280 281 282
305 287 268 253 247 248 247 247 257 267 271 274 270 262 258 256 256 257 257 259 263 268 271 275 278 280 282 285 287 289 292 292 290 292 299 301 298 296 295 293 291 292 292 292 291 289 286 284 285 286 285 281 276 274 271 268 264 259 257 256 259 262 261 258 256 250 242 240 241 240 239 235 232 239 246 247 251 255 258 264 269 274 279 280 280 282
304 324 293 255 246 247 244 239 242 248 259 268 256 232 230 231 230 240 254 258 256 258 265 270 274 278 282 285 289 292 296 298 296 298 304 305 302 301 301 298 295 292 290 288 286 284 281 280 281 283 283 280 278 275 271 268 263 259 257 256 257 261 260 256 252 245 238 239 247 247 242 236 231 237 246 250 254 257 260 266 271 275 278 279 282 287
304 339 325 265 250 246 242 241 248 251 255 264 254 228 216 213 215 227 247 245 243 251 262 266 272 279 282 287 292 294 297 299 299 301 305 305 303 301 300 299 299 297 293 288 285 283 281 279 279 280 280 278 276 272 268 265 261 258 257 256 255 258 259 257 252 242 239 245 244 234 227 226 231 241 250 254 256 259 264 271 277 280 283 286 289 291
315 330 329 298 269 256 252 254 260 260 260 262 258 249 240 232 228 239 253 251 256 268 275 275 279 284 288 292 294 294 294 296 297 299 302 302 302 299 295 293 294 295 294 291 286 283 281 279 278 277 277 278 275 269 265 262 258 256 255 253 253 254 255 254 248 242 242 242 231 221 223 233 240 247 252 254 257 262 269 276 282 287 290 291 291 291
323 327 322 318 310 289 271 264 264 265 262 258 260 279 303 310 311 298 284 280 284 290 292 292 293 295 296 297 296 295 297 297 297 299 301 301 301 299 295 291 289 286 286 290 292 288 282 278 277 276 276 277 276 270 264 260 257 255 253 251 250 250 249 247 243 241 240 232 219 218 228 235 241 249 251 254 261 268 274 281 287 289 290 289 288 288
314 319 319 320 319 307 283 268 263 263 267 282 301 312 314 309 302 300 298 296 295 297 297 297 298 298 298 297 296 296 296 297 298 299 300 300 300 299 297 295 290 284 281 285 292 293 287 280 277 277 277 278 277 272 266 261 257 254 251 249 247 245 241 237 235 238 240 231 219 216 224 229 237 247 248 253 263 270 278 285 286 285 285 285 288 292
296 297 307 313 313 307 275 247 224 262 294 303 309 310 305 299 296 299 300 298 297 297 298 298 299 300 299 297 296 296 295 296 297 299 301 302 302 301 300 297 293 288 285 286 289 291 289 283 279 279 280 280 277 273 269 263 258 254 251 247 244 241 234 230 231 232 229 217 205 205 218 227 235 242 247 257 266 273 280 282 280 282 289 295 301 303
284 282 291 293 290 287 277 272 277 284 285 290 298 301 300 298 299 300 299 298 299 299 299 300 301 301 301 299 297 295 295 294 294 296 301 304 303 301 300 298 295 293 291 289 288 289 287 285 283 283 282 279 275 272 267 260 255 254 250 245 240 233 227 226 226 218 203 194 194 204 217 224 231 240 250 261 269 274 276 277 285 300 311 314 314 314
276 278 281 281 281 281 280 281 284 283 278 282 293 299 302 301 300 299 297 298 300 300 300 301 301 302 303 301 296 293 291 289 288 291 297 301 300 298 298 298 297 295 292 289 289 288 286 286 285 284 282 278 274 270 263 256 251 248 246 246 238 224 216 213 206 194 188 192 202 208 212 221 229 237 250 261 267 270 274 287 311 323 325 326 326 324
277 278 276 274 276 279 278 278 282 284 285 290 295 299 301 299 295 293 294 295 297 298 299 299 299 300 299 297 294 291 287 284 286 291 296 299 297 296 298 299 297 294 291 290 288 286 285 285 285 284 283 277 268 259 253 249 247 242 241 237 220 201 194 191 185 185 194 206 207 204 211 222 228 235 249 257 263 273 291 314 327 329 332 334 331 327
282 281 278 277 278 278 279 281 286 289 290 293 296 297 297 295 292 291 292 294 296 297 297 297 296 294 292 291 292 291 286 285 289 293 296 298 298 298 299 299 297 295 293 289 286 283 283 283 280 273 266 254 242 233 226 218 210 204 203 197 184 176 177 179 182 191 200 200 197 202 209 215 225 238 248 257 271 294 315 324 327 331 335 334 329 326
285 282 283 285 285 283 283 286 291 291 286 284 288 290 290 291 293 294 294 295 296 297 297 296 295 293 290 290 291 290 287 286 289 293 296 298 299 300 300 299 298 296 291 285 280 277 273 261 227 188 170 164 164 170 178 179 169 158 159 162 164 169 172 174 181 190 193 191 194 201 206 214 228 239 249 269 295 312 320 322 325 330 331 329 328 327
284 283 286 288 287 286 286 288 293 293 288 285 288 291 291 293 295 296 297 298 297 295 294 294 295 295 292 288 288 287 284 284 287 291 295 299 301 302 301 300 297 292 285 277 269 255 230 201 179 165 156 151 152 158 165 165 153 142 140 144 152 162 168 173 183 191 192 194 198 203 211 222 230 241 263 294 310 315 317 320 324 327 327 327 328 328
284 283 286 286 284 284 285 284 286 288 287 286 288 290 291 293 294 295 296 296 295 295 294 292 293 294 289 282 279 280 281 283 286 291 295 300 303 304 303 302 298 289 278 265 245 212 178 161 159 155 150 144 138 142 151 151 139 130 133 144 154 165 174 181 188 192 195 202 206 209 217 226 234 255 285 301 310 313 315 318 322 324 325 328 329 328
Height
3111 3110 3110 3110 3110 3112 3113 3113 3114 3114 3114 3115 3115 3115 3115 3115 3114 3114 3113 3111 3110 3110 3111 3113 3114 3116 3117 3118 3118 3118 3118 3119 3121 3121 3121 3120 3119 3119 3118 3119 3119 3120 3121 3122 3122 3123 3124 3125 3127 3127 3128 3129 3130 3130 3130 3131 3131 3131 3130 3130 3129 3129 3128 3128 3128 3128 3128 3129 3129 3129 3129 3128 3128 3128 3127 3127 3127 3128 3128 3129 3129 3130 3131 3131 3132 3134
3110 3109 3109 3109 3111 3111 3112 3112 3113 3114 3114 3114 3114 3114 3114 3114 3113 3113 3113 3112 3112 3112 3113 3113 3114 3114 3116 3116 3117 3117 3118 3118 3119 3120 3120 3119 3117 3117 3117 3117 3117 3118 3119 3119 3120 3121 3122 3123 3125 3125 3125 3126 3127 3128 3129 3129 3130 3129 3129 3129 3129 3128 3128 3127 3127 3127 3127 3128 3128 3128 3128 3128 3128 3127 3127 3126 3126 3126 3127 3127 3128 3128 3129 3129 3130 3131
3109 3108 3108 3109 3110 3111 3111 3112 3112 3113 3113 3113 3113 3113 3112 3112 3112 3112 3112 3112 3112 3113 3112 3112 3113 3113 3114 3114 3115 3115 3116 3116 3117 3118 3118 3117 3116 3115 3115 3115 3116 3117 3117 3117 3118 3119 3120 3122 3123 3122 3123 3124 3125 3126 3128 3128 3128 3128 3128 3128 3128 3128 3127 3127 3126 3126 3125 3126 3127 3127 3127 3127 3127 3127 3127 3126 3126 3126 3126 3126 3127 3127 3128 3128 3129 3130
3108 3107 3108 3109 3110 3110 3111 3111 3112 3112 3112 3112 3112 3112 3111 3111 3112 3112 3112 3112 3112 3112 3111 3111 3110 3110 3112 3113 3113 3114 3114 3115 3115 3115 3115 3115 3114 3114 3114 3114 3114 3114 3114 3115 3116 3117 3119 3120 3121 3121 3121 3122 3123 3124 3126 3127 3127 3127 3127 3126 3126 3127 3126 3126 3126 3125 3124 3125 3125 3125 3126 3126 3126 3126 3126 3126 3125 3125 3125 3125 3126 3126 3126 3127 3127 3128
3107 3106 3108 3108 3109 3109 3109 3110 3110 3110 3110 3110 3110 3110 3110 3110 3110 3111 3111 3111 3111 3111 3111 3110 3109 3108 3110 3111 3111 3113 3113 3112 3113 3113 3113 3112 3111 3112 3112 3112 3113 3113 3113 3114 3115 3116 3117 3118 3119 3119 3119 3120 3121 3123 3125 3125 3126 3126 3126 3125 3125 3125 3125 3125 3125 3124 3123 3124 3124 3124 3124 3125 3125 3125 3125 3125 3125 3125 3125 3125 3125 3125 3125 3126 3126 3126
3106 3106 3107 3107 3107 3108 3108 3108 3108 3109 3109 3109 3109 3109 3109 3108 3109 3109 3109 3109 3110 3110 3110 3110 3109 3106 3107 3108 3109 3110 3109 3109 3110 3110 3109 3108 3108 3109 3110 3111 3111 3111 3111 3112 3113 3114 3115 3116 3117 3117 3118 3118 3119 3121 3123 3124 3124 3124 3124 3124 3124 3124 3124 3124 3124 3123 3122 3122 3123 3123 3123 3124 3124 3125 3125 3125 3125 3125 3125 3125 3125 3125 3125 3125 3125 3125
3104 3104 3104 3105 3106 3106 3106 3107 3107 3107 3107 3107 3107 3107 3107 3107 3107 3107 3108 3107 3108 3108 3108 3109 3108 3105 3103 3104 3106 3106 3106 3106 3107 3106 3106 3105 3105 3106 3107 3108 3109 3109 3109 3110 3110 3111 3113 3115 3116 3116 3116 3116 3117 3120 3121 3122 3123 3123 3123 3123 3123 3123 3124 3124 3123 3123 3122 3121 3122 3122 3123 3123 3124 3124 3124 3125 3125 3124 3124 3124 3124 3124 3124 3124 3124 3124
3103 3103 3102 3102 3104 3105 3105 3105 3106 3106 3106 3106 3105 3105 3105 3105 3105 3106 3105 3105 3105 3106 3106 3107 3106 3103 3100 3100 3102 3103 3103 3103 3103 3103 3103 3103 3103 3103 3104 3105 3107 3107 3107 3108 3108 3109 3111 3113 3114 3114 3114 3115 3116 3118 3119 3120 3121 3122 3122 3122 3122 3122 3123 3123 3123 3122 3122 3121 3121 3122 3122 3123 3123 3123 3124 3124 3124 3124 3123 3123 3123 3123 3123 3124 3124 3124
3101 3101 3101 3101 3102 3103 3104 3104 3105 3105 3105 3104 3104 3104 3104 3104 3104 3104 3104 3104 3104 3104 3104 3104 3104 3102 3097 3096 3099 3100 3099 3100 3100 3100 3101 3100 3100 3101 3102 3103 3104 3105 3106 3106 3107 3108 3109 3111 3112 3113 3113 3114 3115 3116 3117 3119 3120 3120 3121 3121 3121 3121 3122 3122 3122 3121 3121 3121 3121 3121 3122 3122 3123 3123 3123 3123 3123 3123 3123 3123 3122 3122 3122 3123 3123 3123
3100 3101 3101 3101 3101 3102 3102 3103 3103 3103 3103 3103 3103 3103 3103 3104 3103 3103 3103 3103 3103 3103 3103 3102 3103 3102 3097 3093 3095 3097 3097 3097 3098 3097 3097 3097 3098 3099 3099 3100 3102 3104 3104 3104 3105 3106 3107 3109 3110 3111 3112 3113 3114 3114 3116 3117 3118 3118 3119 3119 3120 3120 3121 3121 3120 3120 3120 3120 3120 3120 3121 3121 3122 3122 3122 3122 3122 3122 3122 3122 3122 3122 3121 3121 3121 3122
3100 3100 3100 3100 3100 3101 3101 3102 3102 3101 3101 3101 3101 3102 3102 3103 3102 3102 3102 3101 3103 3103 3101 3101 3101 3103 3099 3091 3091 3094 3095 3095 3095 3094 3093 3093 3094 3096 3097 3098 3100 3102 3103 3103 3103 3103 3105 3106 3108 3110 3111 3111 3112 3113 3114 3115 3115 3116 3117 3117 3118 3118 3119 3119 3119 3118 3118 3119 3119 3119 3119 3120 3120 3120 3120 3120 3120 3120 3120 3120 3120 3120 3120 3120 3120 3120
3098 3099 3099 3099 3099 3099 3099 3100 3100 3100 3100 3100 3100 3100 3101 3101 3101 3101 3101 3101 3103 3102 3100 3100 3100 3103 3100 3092 3090 3093 3094 3094 3094 3092 3092 3091 3092 3094 3095 3096 3098 3100 3102 3102 3102 3102 3103 3104 3106 3108 3109 3110 3112 3112 3113 3113 3114 3114 3115 3115 3116 3116 3117 3118 3118 3117 3117 3117 3118 3118 3118 3119 3119 3119 3119 3119 3119 3118 3118 3118 3118 3118 3118 3118 3118 3118
3097 3097 3097 3097 3097 3097 3098 3098 3099 3098 3098 3099 3099 3099 3100 3100 3101 3101 3101 3101 3101 3099 3098 3099 3100 3100 3098 3092 3090 3092 3093 3094 3093 3091 3092 3092 3092 3092 3093 3094 3096 3098 3099 3100 3100 3101 3102 3103 3104 3106 3107 3109 3110 3111 3112 3112 3112 3113 3113 3113 3114 3114 3115 3116 3116 3116 3115 3115 3116 3117 3117 3117 3117 3117 3118 3117 3117 3117 3117 3116 3116 3116 3116 3116 3117 3117
3095 3095 3096 3096 3095 3096 3096 3096 3096 3097 3097 3098 3098 3098 3099 3100 3102 3103 3102 3101 3100 3097 3097 3099 3099 3097 3094 3091 3091 3092 3093 3093 3092 3091 3090 3091 3092 3091 3092 3093 3094 3095 3097 3098 3099 3099 3100 3102 3103 3104 3106 3107 3108 3109 3110 3111 3111 3111 3111 3112 3112 3113 3114 3114 3114 3114 3114 3114 3114 3115 3115 3115 3115 3116 3116 3116 3115 3115 3115 3115 3114 3114 3114 3114 3115 3115
3094 3094 3094 3094 3094 3094 3094 3094 3095 3095 3096 3096 3097 3097 3097 3098 3099 3100 3100 3099 3098 3096 3096 3097 3097 3095 3092 3091 3091 3091 3092 3091 3090 3090 3089 3090 3091 3091 3091 3091 3092 3093 3095 3096 3097 3098 3099 3100 3101 3103 3104 3105 3106 3107 3108 3109 3109 3109 3110 3110 3111 3112 3112 3112 3112 3112 3112 3112 3113 3113 3114 3114 3114 3114 3114 3113 3113 3113 3113 3113 3112 3112 3111 3112 3112 3113
3092 3092 3092 3093 3093 3093 3093 3092 3093 3094 3094 3094 3095 3095 3096 3096 3096 3097 3096 3096 3096 3096 3096 3095 3094 3093 3091 3091 3091 3091 3090 3089 3089 3089 3089 3089 3089 3089 3089 3090 3091 3093 3094 3095 3096 3097 3098 3099 3100 3101 3102 3103 3104 3105 3106 3106 3107 3107 3108 3108 3109 3110 3110 3110 3110 3110 3110 3111 3111 3111 3112 3112 3112 3112 3111 3111 3111 3110 3110 3110 3109 3109 3109 3109 3109 3110
3090 3090 3090 3091 3091 3091 3091 3092 3092 3093 3093 3093 3093 3093 3094 3095 3095 3094 3094 3094 3095 3096 3094 3092 3092 3091 3091 3091 3091 3090 3089 3089 3089 3089 3089 3088 3087 3088 3088 3089 3090 3092 3093 3095 3096 3096 3097 3097 3098 3098 3099 3100 3101 3102 3103 3104 3104 3105 3105 3106 3107 3108 3108 3108 3108 3108 3108 3108 3109 3110 3110 3110 3110 3110 3109 3109 3108 3108 3108 3107 3107 3107 3106 3106 3106 3106
3087 3088 3088 3089 3089 3089 3090 3091 3092 3092 3092 3092 3091 3092 3092 3093 3093 3094 3094 3094 3095 3095 3092 3090 3090 3090 3090 3090 3089 3087 3087 3087 3087 3087 3087 3086 3086 3087 3088 3089 3090 3091 3092 3094 3096 3096 3096 3095 3096 3096 3096 3097 3098 3099 3100 3101 3101 3102 3103 3104 3105 3105 3106 3106 3106 3106 3106 3106 3107 3108 3108 3108 3108 3108 3107 3107 3107 3106 3106 3105 3105 3104 3104 3104 3103 3103
3085 3085 3085 3086 3087 3087 3088 3090 3090 3090 3090 3090 3090 3091 3091 3091 3092 3093 3094 3094 3094 3094 3091 3089 3089 3088 3088 3088 3088 3086 3086 3085 3084 3084 3084 3084 3085 3087 3087 3089 3089 3090 3091 3092 3094 3095 3095 3094 3094 3094 3094 3095 3096 3097 3098 3099 3099 3099 3100 3101 3102 3103 3103 3104 3104 3104 3104 3104 3105 3105 3106 3106 3106 3106 3106 3106 3105 3105 3104 3104 3103 3103 3102 3102 3101 3101
3082 3083 3083 3084 3085 3085 3085 3087 3088 3088 3088 3088 3089 3089 3089 3090 3090 3090 3091 3090 3090 3091 3091 3089 3088 3087 3087 3087 3087 3086 3085 3084 3084 3083 3083 3083 3084 3086 3087 3089 3089 3090 3090 3090 3091 3092 3093 3093 3093 3093 3094 3094 3095 3095 3096 3096 3097 3098 3098 3099 3100 3100 3101 3101 3101 3102 3102 3102 3102 3103 3104 3104 3104 3104 3104 3104 3104 3103 3103 3102 3102 3101 3101 3100 3100 3099
3081 3081 3082 3082 3083 3083 3083 3085 3085 3085 3086 3087 3087 3087 3087 3088 3089 3088 3088 3087 3087 3088 3088 3088 3087 3085 3085 3086 3086 3086 3084 3083 3083 3083 3083 3083 3083 3084 3086 3086 3088 3088 3088 3089 3088 3088 3089 3090 3091 3091 3092 3093 3093 3093 3094 3094 3095 3096 3096 3097 3097 3098 3099 3099 3099 3100 3100 3100 3100 3101 3101 3102 3102 3102 3102 3102 3102 3102 3101 3101 3100 3100 3099 3099 3098 3098
3080 3080 3080 3080 3081 3081 3081 3083 3083 3083 3085 3086 3086 3086 3085 3086 3087 3087 3086 3085 3085 3085 3085 3085 3083 3082 3083 3085 3085 3085 3084 3082 3082 3082 3083 3083 3083 3084 3084 3084 3085 3085 3086 3086 3086 3087 3087 3088 3088 3089 3090 3091 3091 3090 3091 3092 3092 3093 3094 3095 3095 3096 3097 3097 3098 3098 3099 3098 3098 3099 3099 3100 3100 3100 3100 3100 3100 3100 3099 3099 3098 3098 3098 3097 3096 3096
3079 3078 3078 3078 3079 3079 3080 3081 3081 3082 3083 3084 3084 3084 3084 3084 3085 3085 3085 3083 3084 3083 3082 3082 3079 3077 3081 3083 3083 3084 3083 3081 3082 3082 3082 3082 3082 3083 3083 3083 3084 3084 3085 3085 3085 3086 3087 3085 3085 3085 3086 3087 3087 3087 3088 3088 3088 3089 3091 3092 3092 3093 3094 3095 3096 3097 3097 3097 3097 3097 3097 3098 3098 3097 3097 3098 3098 3097 3097 3097 3096 3096 3096 3095 3094 3093
3077 3076 3076 3075 3076 3076 3077 3078 3079 3080 3081 3082 3081 3081 3082 3083 3083 3083 3083 3082 3082 3080 3079 3081 3077 3073 3077 3080 3080 3081 3080 3079 3080 3079 3079 3080 3080 3080 3081 3081 3081 3082 3083 3083 3083 3085 3084 3083 3082 3082 3082 3083 3084 3084 3085 3085 3086 3086 3087 3088 3088 3089 3091 3092 3093 3094 3094 3095 3095 3095 3095 3096 3096 3095 3095 3096 3096 3095 3095 3094 3094 3094 3093 3092 3092 3091
3076 3075 3074 3074 3074 3074 3075 3076 3077 3078 3079 3078 3078 3078 3079 3080 3080 3081 3081 3081 3080 3077 3077 3078 3074 3071 3074 3077 3077 3078 3077 3076 3077 3078 3077 3077 3077 3077 3077 3077 3078 3079 3079 3080 3080 3081 3081 3081 3081 3081 3080 3080 3080 3080 3081 3081 3082 3083 3084 3084 3084 3085 3087 3088 3089 3091 3092 3092 3093 3093 3093 3093 3093 3093 3093 3094 3093 3093 3092 3092 3091 3091 3090 3089 3089 3088
3074 3074 3073 3074 3074 3074 3075 3076 3076 3076 3076 3075 3074 3075 3076 3077 3077 3078 3079 3079 3078 3076 3075 3075 3071 3069 3071 3073 3074 3073 3072 3072 3073 3074 3074 3073 3073 3074 3074 3074 3075 3075 3076 3077 3078 3078 3079 3079 3079 3077 3077 3077 3076 3076 3077 3077 3078 3080 3080 3080 3080 3081 3082 3083 3084 3086 3088 3089 3090 3090 3091 3091 3091 3091 3091 3091 3091 3091 3090 3090 3089 3089 3087 3087 3086 3085
3072 3071 3071 3071 3071 3071 3073 3074 3074 3074 3074 3072 3072 3072 3074 3074 3074 3076 3077 3076 3076 3075 3073 3072 3071 3069 3067 3069 3071 3070 3069 3068 3069 3069 3069 3069 3070 3070 3070 3070 3070 3071 3072 3073 3074 3075 3075 3075 3075 3074 3073 3074 3074 3073 3074 3074 3075 3076 3076 3076 3077 3077 3078 3079 3080 3081 3083 3086 3087 3088 3089 3089 3089 3089 3089 3089 3089 3088 3088 3087 3087 3086 3085 3084 3082 3081
3070 3069 3069 3068 3068 3069 3070 3071 3071 3071 3070 3069 3069 3069 3070 3071 3071 3072 3073 3072 3073 3073 3069 3068 3070 3068 3065 3066 3067 3065 3065 3066 3066 3066 3065 3065 3066 3066 3067 3067 3067 3067 3068 3068 3069 3070 3070 3071 3070 3070 3070 3070 3071 3071 3070 3071 3071 3072 3072 3073 3074 3074 3074 3075 3075 3076 3078 3081 3084 3086 3086 3086 3086 3086 3086 3086 3086 3085 3085 3084 3084 3083 3082 3081 3079 3078
3068 3067 3067 3066 3066 3067 3068 3068 3068 3068 3067 3066 3065 3065 3066 3068 3068 3068 3068 3069 3070 3069 3066 3065 3067 3066 3064 3063 3062 3061 3062 3063 3062 3062 3062 3062 3063 3063 3063 3064 3064 3064 3064 3064 3064 3064 3065 3066 3066 3066 3066 3066 3066 3066 3066 3066 3067 3068 3068 3068 3069 3070 3070 3070 3072 3073 3074 3076 3079 3080 3081 3082 3083 3084 3083 3083 3083 3082 3081 3081 3080 3080 3079 3077 3076 3074
3066 3065 3066 3065 3064 3064 3065 3065 3065 3065 3064 3062 3062 3062 3063 3064 3065 3064 3064 3065 3065 3065 3064 3063 3063 3062 3062 3060 3059 3058 3059 3059 3059 3060 3060 3060 3060 3060 3060 3060 3061 3061 3061 3061 3060 3061 3061 3062 3062 3062 3062 3062 3062 3061 3061 3061 3062 3063 3063 3063 3064 3064 3065 3066 3067 3068 3069 3070 3072 3074 3076 3078 3079 3080 3080 3080 3080 3079 3078 3077 3076 3076 3075 3073 3072 3071
3064 3063 3063 3063 3062 3061 3062 3062 3062 3062 3061 3058 3057 3059 3061 3061 3061 3061 3061 3061 3061 3060 3061 3060 3059 3059 3058 3058 3057 3056 3056 3056 3057 3057 3057 3057 3057 3058 3057 3057 3057 3057 3057 3057 3057 3057 3058 3058 3058 3058 3058 3058 3058 3058 3057 3056 3057 3057 3057 3058 3059 3059 3060 3060 3061 3063 3064 3065 3067 3068 3070 3072 3074 3075 3076 3076 3076 3075 3074 3073 3072 3072 3071 3069 3068 3067
3063 3061 3061 3062 3060 3058 3059 3060 3059 3059 3058 3054 3052 3055 3057 3058 3057 3057 3057 3057 3056 3056 3057 3056 3056 3055 3054 3055 3055 3055 3053 3053 3053 3054 3054 3054 3054 3054 3054 3053 3053 3053 3053 3053 3054 3054 3054 3054 3054 3053 3053 3053 3053 3054 3053 3052 3052 3052 3052 3052 3052 3053 3053 3054 3055 3057 3059 3061 3062 3062 3064 3066 3068 3070 3070 3071 3071 3071 3070 3069 3068 3067 3066 3065 3064 3063
3060 3059 3059 3060 3058 3056 3057 3057 3056 3057 3054 3048 3047 3051 3053 3054 3054 3054 3054 3053 3053 3053 3053 3053 3053 3052 3052 3051 3052 3052 3051 3050 3050 3050 3050 3051 3051 3050 3049 3049 3049 3049 3049 3049 3049 3049 3049 3049 3049 3049 3048 3048 3048 3049 3049 3048 3048 3048 3048 3047 3047 3047 3047 3048 3049 3052 3054 3056 3057 3057 3058 3060 3063 3064 3065 3066 3067 3067 3065 3065 3064 3063 3062 3061 3060 3059
3056 3056 3056 3057 3056 3054 3054 3054 3054 3053 3048 3043 3044 3048 3050 3050 3050 3050 3050 3050 3050 3050 3050 3050 3050 3050 3049 3048 3048 3048 3048 3047 3047 3047 3047 3047 3047 3046 3045 3045 3044 3044 3043 3043 3043 3043 3043 3043 3043 3043 3043 3043 3042 3043 3044 3044 3043 3043 3043 3043 3043 3042 3042 3042 3044 3047 3048 3050 3051 3052 3053 3055 3056 3057 3059 3061 3062 3062 3061 3060 3060 3058 3058 3057 3056 3055
3051 3052 3053 3053 3053 3052 3051 3052 3052 3047 3041 3040 3044 3046 3046 3047 3048 3048 3047 3047 3047 3047 3047 3047 3047 3046 3046 3045 3045 3045 3045 3044 3044 3044 3044 3044 3043 3042 3041 3040 3039 3039 3038 3038 3037 3038 3037 3037 3037 3037 3036 3037 3037 3037 3038 3038 3038 3038 3038 3038 3038 3037 3037 3037 3039 3041 3043 3045 3046 3047 3047 3048 3049 3050 3052 3054 3056 3056 3056 3056 3055 3054 3053 3053 3052 3051
3046 3047 3048 3048 3048 3048 3047 3048 3046 3040 3037 3040 3042 3043 3044 3044 3045 3045 3045 3044 3044 3044 3044 3044 3043 3043 3042 3042 3042 3042 3041 3041 3041 3041 3042 3041 3040 3038 3037 3036 3035 3034 3033 3033 3032 3032 3032 3032 3031 3030 3029 3030 3031 3031 3032 3033 3033 3033 3032 3032 3032 3032 3033 3034 3034 3035 3037 3038 3038 3039 3039 3040 3041 3043 3046 3048 3050 3051 3052 3051 3051 3050 3049 3049 3048 3047
3044 3043 3043 3044 3043 3043 3043 3041 3040 3037 3036 3037 3038 3039 3041 3040 3041 3042 3041 3040 3040 3040 3040 3040 3040 3040 3040 3039 3039 3039 3038 3038 3037 3038 3040 3039 3037 3035 3034 3033 3031 3030 3029 3029 3028 3027 3027 3026 3025 3024 3023 3023 3024 3025 3027 3027 3028 3028 3027 3026 3026 3027 3028 3029 3031 3033 3034 3034 3034 3035 3035 3035 3037 3039 3041 3043 3045 3046 3046 3047 3046 3046 3046 3045 3044 3043
3041 3039 3039 3039 3038 3039 3039 3039 3038 3037 3034 3033 3034 3035 3035 3035 3036 3037 3037 3037 3037 3036 3036 3037 3037 3037 3037 3037 3036 3036 3035 3033 3032 3033 3035 3035 3033 3031 3030 3029 3028 3026 3025 3024 3023 3023 3022 3021 3020 3019 3018 3017 3018 3019 3020 3021 3022 3022 3022 3021 3021 3021 3022 3024 3027 3029 3031 3032 3034 3034 3034 3034 3035 3037 3038 3040 3041 3041 3042 3042 3042 3042 3042 3041 3040 3038
3037 3036 3035 3036 3036 3036 3037 3036 3035 3034 3033 3032 3032 3031 3031 3032 3033 3033 3034 3033 3033 3033 3033 3033 3033 3033 3033 3034 3033 3033 3032 3029 3026 3027 3029 3029 3028 3027 3025 3023 3023 3022 3020 3020 3018 3017 3017 3016 3015 3014 3014 3013 3012 3013 3014 3014 3015 3016 3017 3017 3016 3015 3016 3019 3022 3025 3027 3029 3031 3030 3030 3031 3032 3034 3035 3037 3038 3038 3038 3039 3039 3039 3038 3037 3035 3033
3035 3034 3034 3034 3033 3034 3035 3034 3032 3031 3031 3030 3030 3029 3029 3029 3029 3031 3031 3030 3029 3031 3031 3031 3031 3031 3030 3030 3030 3029 3029 3026 3023 3022 3024 3024 3023 3023 3021 3019 3017 3016 3015 3014 3013 3011 3010 3010 3009 3008 3008 3008 3007 3007 3007 3007 3008 3009 3010 3011 3011 3010 3011 3014 3017 3021 3023 3025 3026 3027 3027 3028 3030 3031 3033 3034 3035 3035 3035 3035 3035 3034 3033 3032 3030 3028
3034 3034 3033 3033 3032 3032 3032 3032 3031 3030 3029 3029 3029 3029 3027 3026 3027 3029 3029 3028 3028 3028 3028 3028 3028 3027 3027 3027 3026 3025 3025 3024 3021 3020 3020 3019 3018 3018 3017 3015 3013 3011 3009 3008 3006 3005 3004 3003 3002 3002 3002 3002 3001 3001 3000 3000 3001 3003 3004 3005 3004 3004 3006 3009 3012 3015 3017 3019 3021 3023 3024 3025 3028 3029 3030 3031 3032 3032 3031 3031 3031 3030 3029 3028 3026 3024
3033 3033 3033 3033 3032 3031 3031 3030 3029 3028 3028 3027 3027 3027 3025 3025 3027 3027 3026 3026 3026 3026 3025 3025 3025 3024 3023 3023 3022 3021 3021 3020 3019 3017 3016 3014 3013 3012 3011 3010 3008 3006 3004 3002 3001 2999 2997 2996 2996 2995 2995 2995 2994 2994 2994 2994 2995 2996 2998 2998 2998 2999 3002 3004 3006 3010 3013 3016 3018 3019 3020 3022 3024 3026 3028 3028 3029 3029 3028 3028 3027 3026 3025 3024 3022 3021
3034 3033 3032 3032 3031 3030 3029 3028 3027 3027 3026 3025 3025 3025 3025 3025 3025 3024 3024 3024 3024 3023 3022 3022 3021 3020 3019 3018 3018 3017 3016 3015 3015 3013 3011 3009 3007 3006 3005 3003 3002 3000 2998 2997 2996 2994 2992 2990 2989 2989 2989 2988 2987 2987 2986 2987 2988 2989 2991 2992 2993 2995 2998 2999 3001 3005 3010 3012 3014 3015 3016 3019 3021 3023 3025 3026 3026 3026 3025 3025 3024 3023 3022 3020 3019 3017
3033 3032 3031 3030 3030 3029 3027 3026 3026 3026 3025 3024 3024 3024 3024 3023 3022 3022 3021 3021 3020 3019 3018 3017 3016 3016 3015 3014 3013 3012 3011 3010 3009 3008 3006 3004 3002 3000 2999 2997 2996 2994 2992 2991 2990 2989 2987 2984 2983 2982 2982 2981 2980 2979 2979 2979 2980 2982 2984 2986 2988 2990 2992 2994 2997 3002 3006 3008 3009 3012 3014 3016 3019 3021 3022 3023 3022 3022 3022 3022 3021 3020 3019 3017 3015 3014
3031 3030 3030 3028 3028 3027 3025 3023 3024 3024 3024 3024 3023 3022 3021 3020 3019 3019 3018 3017 3016 3015 3014 3013 3012 3011 3011 3009 3008 3007 3006 3005 3004 3003 3001 2999 2997 2996 2994 2992 2990 2988 2986 2985 2984 2983 2981 2978 2977 2976 2975 2974 2973 2971 2971 2972 2973 2975 2977 2980 2982 2984 2987 2989 2991 2997 3001 3004 3006 3009 3011 3014 3017 3018 3019 3019 3019 3019 3019 3019 3018 3017 3015 3014 3012 3010
3028 3028 3027 3025 3025 3023 3021 3020 3021 3021 3021 3021 3019 3018 3017 3016 3015 3015 3014 3013 3012 3011 3010 3009 3008 3007 3006 3005 3003 3002 3002 3001 2999 2998 2997 2995 2993 2991 2989 2987 2985 2983 2981 2979 2978 2977 2975 2973 2971 2970 2968 2967 2966 2965 2964 2965 2967 2969 2972 2974 2976 2978 2982 2986 2989 2993 2998 3000 3003 3007 3009 3012 3014 3015 3016 3016 3016 3016 3016 3016 3015 3013 3012 3010 3008 3006
3026 3025 3023 3022 3021 3019 3016 3016 3018 3018 3017 3016 3015 3014 3013 3012 3012 3011 3010 3009 3008 3007 3006 3005 3004 3003 3002 3001 2999 2998 2997 2996 2995 2993 2992 2991 2989 2987 2985 2982 2980 2978 2976 2974 2973 2971 2969 2967 2966 2964 2962 2960 2960 2960 2961 2962 2963 2964 2966 2968 2971 2975 2980 2985 2989 2993 2996 2999 3002 3005 3007 3009 3011 3013 3013 3013 3014 3013 3013 3012 3012 3011 3009 3007 3005 3002
3023 3021 3019 3018 3017 3015 3012 3013 3014 3014 3012 3011 3011 3009 3009 3008 3007 3007 3007 3005 3004 3003 3002 3001 3000 2999 2999 2998 2996 2995 2993 2992 2991 2989 2988 2986 2984 2982 2980 2977 2974 2972 2970 2969 2968 2966 2964 2963 2962 2960 2958 2957 2956 2956 2959 2960 2961 2961 2963 2966 2971 2976 2981 2985 2989 2992 2995 2998 3001 3003 3006 3008 3009 3010 3011 3011 3011 3011 3010 3010 3009 3008 3007 3004 3002 2999
3019 3017 3016 3015 3013 3010 3009 3010 3010 3008 3006 3007 3007 3006 3004 3003 3003 3002 3002 3001 3000 2999 2998 2997 2997 2996 2995 2994 2993 2991 2989 2988 2987 2986 2983 2982 2980 2977 2975 2972 2969 2967 2965 2964 2963 2962 2961 2960 2959 2958 2958 2957 2956 2956 2958 2960 2961 2963 2965 2969 2974 2978 2981 2984 2988 2991 2994 2997 3000 3003 3005 3007 3007 3008 3009 3009 3008 3008 3008 3008 3007 3006 3004 3002 2999 2997
3015 3013 3013 3012 3009 3006 3006 3007 3006 3003 3001 3001 3002 3001 3000 3000 2999 2998 2998 2997 2996 2995 2994 2993 2992 2992 2991 2990 2989 2987 2985 2984 2984 2982 2980 2977 2975 2973 2970 2967 2964 2961 2960 2959 2959 2959 2959 2958 2958 2958 2958 2958 2958 2958 2959 2961 2963 2965 2968 2972 2976 2979 2982 2985 2988 2991 2994 2997 3000 3002 3004 3005 3006 3007 3007 3007 3006 3006 3006 3005 3005 3003 3002 2999 2996 2994
3011 3009 3009 3008 3005 3004 3004 3004 3003 3001 2998 2998 2997 2997 2997 2996 2995 2994 2994 2993 2992 2991 2990 2989 2988 2987 2987 2986 2984 2983 2981 2980 2980 2978 2976 2973 2971 2969 2966 2962 2959 2957 2956 2955 2956 2957 2958 2958 2958 2958 2959 2960 2960 2960 2961 2963 2965 2967 2971 2974 2977 2980 2983 2986 2989 2992 2995 2997 2999 3001 3002 3004 3005 3005 3005 3004 3005 3004 3004 3003 3002 3001 2999 2996 2994 2991